Location: Vancouver
(49.2500°N, 123.1330°W)
Time: 07:41:19
(UTC-07:00)

YAOGAN 6 - Visible Passes

Search period start: 29 August 2016 00:00
Search period end: 08 September 2016 00:00
Orbit: 472 x 509 km, 97.2° (Epoch: 29 August)

Date Brightness Start Highest point End Pass type
(mag) Time Alt. Az. Time Alt. Az. Time Alt. Az.
29 Aug 5.0 20:30:23 10° ENE 20:30:43 10° ENE 20:31:04 10° NE visible
29 Aug 2.5 22:02:35 45° SSE 22:03:39 89° ENE 22:07:25 10° NNW visible
30 Aug 2.9 21:39:58 34° SE 21:41:12 49° ENE 21:44:50 10° N visible
30 Aug 5.2 23:14:27 15° WSW 23:15:05 15° W 23:17:18 10° NW visible
31 Aug 3.7 21:17:21 22° ESE 21:18:48 29° ENE 21:22:03 10° N visible
31 Aug 4.4 22:51:50 24° WSW 22:52:22 25° W 22:55:33 10° NW visible
01 Sep 4.4 20:54:44 13° E 20:56:29 18° ENE 20:59:02 10° NNE visible
01 Sep 3.5 22:29:13 41° SW 22:29:45 44° W 22:33:22 10° NNW visible
02 Sep 4.9 20:33:07 10° ENE 20:34:13 11° ENE 20:35:20 10° NE visible
02 Sep 2.6 22:06:36 61° S 22:07:12 82° WSW 22:10:58 10° NNW visible
03 Sep 2.8 21:43:59 45° ESE 21:44:43 55° ENE 21:48:24 10° N visible
03 Sep 5.3 23:18:29 14° W 23:18:39 14° W 23:20:38 10° WNW visible
04 Sep 3.6 21:21:22 27° E 21:22:18 31° ENE 21:25:40 10° N visible
04 Sep 4.6 22:55:52 23° W 22:55:56 23° W 22:59:00 10° NW visible
05 Sep 4.3 20:58:45 17° E 20:59:58 19° ENE 21:02:41 10° NNE visible
05 Sep 3.7 22:33:15 40° W 22:33:17 40° W 22:36:52 10° NNW visible
06 Sep 4.8 20:36:10 10° E 20:37:41 12° ENE 20:39:13 10° NE visible
06 Sep 2.7 22:10:38 73° WSW 22:10:43 74° WSW 22:14:29 10° NNW visible
07 Sep 2.6 21:48:00 59° E 21:48:14 61° ENE 21:51:56 10° N visible
07 Sep 5.5 23:22:30 12° W 23:22:30 12° W 23:23:53 10° WNW visible
